Volver al catálogo

IRIDIUM 165

ActivoComunicacionesPO
NORAD 43572·PAYLOAD·🇺🇸 United States

Lanzado Jul 25, 2018 desde Vandenberg Space Force Base

Loading…

Próximos Pases (próximas 24 horas)

TLE

ActualizadoSource: CelesTrak SupGP

Época: Sep 14, 2026, 21:41 UTC

1 43572C 18061D   26257.90381944 -.00001238  00000+0 -44261-3 0  2579
2 43572  86.4013  19.2827 0002151  94.3706  72.7236 14.34219521    12

Sigue IRIDIUM 165 en tiempo real con AllMySat

Download on the App Store